Location: Unspecified
(49.2170°N, 0.0000°E)
Time: 14:20:40
(UTC+00:00)

SR - Pass Details

Date: 23 January 2021
Orbit: 573 x 882 km, 66.7° (Epoch: 05 March)

Event Time Altitude Azimuth Distance (km) Brightness Sun altitude
Exits shadow 06:17:58 18° 261° (W) 1,722 ? -13.6°
Maximum altitude 06:21:12 36° 319° (NW) 1,157 ? -13.1°
Drops below altitude 10° 06:26:10 10° 26° (NNE) 2,358 ? -12.3°
Sets 06:28:53 0° 35° (NE) 3,341 ? -11.9°
